Starlink 33604

operational
NORAD ID: 63070 Int'l Des: 2025-035 Owner: SPXS Country: US Constellation: starlink
LEOCIRCULAR

About Starlink 33604

Description loading...

Live Position

Loading 3D Globe...

Upcoming Passes

Altitude History

Altitude vs Time

uPlot chart will show altitude changes over time

Two-Line Element Set

1 63070U 25035U 25304.60696494 .00045554 00000-0 16521-2 0 9999
2 63070 42.9991 156.4635 0001490 156.5028 203.5892 15.27631266 39979
Epoch: Oct 31, 2025 • Age: 6 hours

Current Status

Altitude 483.0 km
Velocity 7.63 km/s
Sub-Earth Point 4.81°N, 166.6°E
Launch Date Feb 21, 2025
Age 0.6 years
Type internet

Technical Details

Classification Payload
Mass 575.00 kg
Dry Mass 530.00 kg
Total Mass 575.00 kg
Length 0.30 m
Diameter 4.10 m
Span 29.00 m
Shape Box + pan
Manufacturer SPXS
Bus Type Starlink V2MO
Phase Status In Orbit
Owner/State SPXS/US

Large Constellations

Loading constellations...